Weather History for St. Joseph, MO

Change the Weather History Date:

Saturday, February 23, 2013

  Actual Average Record
Temperature  
Mean Temperature 17 °F 34 °F  
Max Temperature 34 °F 45 °F 71 °F (1918)
Min Temperature -1 °F 24 °F -5 °F (1910)
Degree Days  
Heating Degree Days 48 31  
Month to date heating degree days 772 776  
Since 1 July heating degree days 3933 4159  
Cooling Degree Days 0 0  
Month to date cooling degree days 0 0  
Year to date cooling degree days 0 0  
Moisture  
Dew Point 8 °F    
Average Humidity 78    
Maximum Humidity 100    
Minimum Humidity 56    
Precipitation  
Precipitation 0.00 in 0.04 in 1.20 in (1942)
Month to date precipitation 0.37 0.74  
Year to date precipitation 1.01 1.30  
Sea Level Pressure  
Sea Level Pressure 30.03 in    
Wind  
Wind Speed 5 mph (South)    
Max Wind Speed 12 mph    
Max Gust Speed 14 mph    
Visibility 6 miles    
Events Fog    
T = Trace of Precipitation, MM = Missing Value Source: NWS Daily Summary

Daily Weather History Graph

Daily Weather History Graph

Search for Another Location

Airport:

Trip Planner

Search our weather history database for the weather conditions in past years. The results will help you decide how hot, cold, wet, or windy it might be!

Date:

Astronomy

Feb. 23, 2013 Rise Set
Actual Time 7:01 AM CST 6:05 PM CST
Civil Twilight 6:33 AM CST 6:32 PM CST
Nautical Twilight 6:02 AM CST 7:04 PM CST
Astronomical Twilight 5:31 AM CST 7:35 PM CST
Moon 4:16 PM CST (2/23) 5:23 AM CST (2/23)
Length of Visible Light 11h 58m
Length of Day
11h 04m
Waxing Gibbous, 95% of the Moon is Illuminated
Feb 23
Waxing Gibbous
Feb 25
Full
Mar 4
Last Quarter
Mar 11
New
Mar 19
First Quarter

Hourly Weather History & Observations

Time (CST) Temp. Windchill Dew Point Humidity Pressure Visibility Wind Dir Wind Speed Gust Speed Precip Events Conditions
12:53 AM 12.0 °F - 7.0 °F 80% 30.11 in 9.0 mi Calm Calm - N/A   Clear
1:53 AM 12.0 °F 5.9 °F 7.0 °F 80% 30.10 in 8.0 mi SW 3.5 mph - N/A   Clear
2:53 AM 9.0 °F - 6.1 °F 88% 30.09 in 8.0 mi Calm Calm - N/A   Clear
3:53 AM 8.1 °F - 5.0 °F 87% 30.08 in 4.0 mi Calm Calm - N/A   Clear
4:53 AM 8.1 °F 1.4 °F 5.0 °F 87% 30.08 in 3.0 mi South 3.5 mph - N/A   Clear
5:53 AM 5.0 °F - 1.0 °F 84% 30.07 in 4.0 mi Calm Calm - N/A   Clear
6:14 AM 5.0 °F - 3.2 °F 92% 30.03 in 1.2 mi Calm Calm - N/A   Clear
6:16 AM 5.0 °F - 3.2 °F 92% 30.03 in 0.5 mi Calm Calm - N/A Fog Light Freezing Fog
6:27 AM 1.4 °F - -2.2 °F 85% 30.03 in 1.0 mi Calm Calm - N/A   Clear
6:38 AM 1.4 °F - -2.2 °F 85% 30.03 in 3.0 mi Calm Calm - N/A   Haze
6:45 AM 3.2 °F - -0.4 °F 85% 30.02 in 2.0 mi Calm Calm - N/A   Haze
6:53 AM 5.0 °F - 1.0 °F 84% 30.07 in 4.0 mi Calm Calm - N/A   Clear
7:01 AM 3.2 °F - 1.4 °F 92% 30.02 in 1.8 mi Calm Calm - N/A   Clear
7:05 AM 3.2 °F - 1.4 °F 92% 30.02 in 0.5 mi Calm Calm - N/A Fog Light Freezing Fog
7:19 AM -0.4 °F - -2.2 °F 92% 30.02 in 0.2 mi Calm Calm - N/A Fog Light Freezing Fog
7:36 AM -0.4 °F - -2.2 °F 92% 30.02 in 1.0 mi Calm Calm - N/A   Mist
7:43 AM 1.4 °F -6.2 °F -2.2 °F 85% 30.03 in 0.2 mi South 3.5 mph - N/A Fog Light Freezing Fog
7:53 AM 1.9 °F -5.6 °F -2.0 °F 83% 30.08 in 1.2 mi South 3.5 mph - N/A   Partly Cloudy
8:08 AM 6.8 °F - 5.0 °F 92% 30.02 in 0.8 mi Calm Calm - N/A   Clear
8:30 AM 10.4 °F - 8.6 °F 92% 30.03 in 2.0 mi Calm Calm - N/A   Clear
8:46 AM 10.4 °F 4.0 °F 8.6 °F 92% 30.02 in 3.0 mi South 3.5 mph - N/A   Clear
8:53 AM 10.9 °F 4.7 °F 10.0 °F 96% 30.07 in 4.0 mi South 3.5 mph - N/A   Clear
9:53 AM 15.1 °F 7.7 °F 10.9 °F 84% 30.06 in 7.0 mi SSE 4.6 mph - N/A   Clear
10:53 AM 19.0 °F 11.1 °F 12.9 °F 77% 30.06 in 8.0 mi SSE 5.8 mph - N/A   Clear
11:53 AM 24.1 °F 15.2 °F 15.1 °F 69% 30.04 in 10.0 mi South 8.1 mph - N/A   Clear
12:53 PM 27.0 °F 18.7 °F 16.0 °F 63% 30.03 in 10.0 mi SSW 8.1 mph - N/A   Clear
1:53 PM 30.9 °F 22.2 °F 18.0 °F 59% 30.01 in 10.0 mi SSW 10.4 mph - N/A   Clear
2:53 PM 33.1 °F 24.9 °F 19.0 °F 56% 29.99 in 10.0 mi SSW 10.4 mph - 0.00 in   Clear
3:53 PM 34.0 °F 27.2 °F 19.9 °F 56% 29.98 in 10.0 mi SSW 8.1 mph - N/A   Clear
4:53 PM 33.1 °F 26.1 °F 21.0 °F 61% 29.97 in 10.0 mi SW 8.1 mph - N/A   Clear
5:53 PM 30.9 °F 23.5 °F 19.9 °F 64% 29.97 in 10.0 mi South 8.1 mph - N/A   Clear
6:53 PM 28.9 °F 19.2 °F 19.0 °F 67% 29.97 in 10.0 mi SSE 11.5 mph - N/A   Clear
7:53 PM 27.0 °F 18.7 °F 18.0 °F 69% 29.99 in 10.0 mi South 8.1 mph - N/A   Clear
8:53 PM 25.0 °F 20.7 °F 17.1 °F 72% 30.00 in 10.0 mi South 3.5 mph - N/A   Clear
9:53 PM 25.0 °F - 17.1 °F 72% 30.00 in 10.0 mi Calm Calm - N/A   Clear
10:53 PM 19.9 °F - 15.1 °F 81% 30.01 in 10.0 mi Calm Calm - N/A   Clear
11:53 PM 19.9 °F 13.4 °F 14.0 °F 78% 30.00 in 10.0 mi SSE 4.6 mph - N/A   Clear